Flag for India Weather past 2 weeks in Ahmedabad, Gujarat, India

Now
77 °F

Light rain. Mostly cloudy.


Feels Like: 78 °F
Forecast: 77 / 86 °F
Wind: 14 mph from Southwest

Location: Ahmadabad Airport

Current Time: Jul 29, 2015 at 4:08:30 AM

Latest Report: Jul 29, 2015 at 2:40 AM


Visibility: 2 mi

Pressure: 29.53 "Hg

Humidity: 89%

Dew point: 73 °F

Location of AhmedabadLocation

Historic Weather in Ahmedabad — Graph

°F

Ahmedabad temperature yesterday

Maximum temperature yesterday: 81 °F (at 5:10 PM)
Minimum temperature yesterday: 73 °F (at 2:10 AM)
Average temperature yesterday: 76 °F

Past Weeks' High & Low Weather Summary

 TemperatureHumidityPressure
High100 °F (Jul 14, 4:10 PM)100% (Jul 26, 3:10 PM)29.65 "Hg (Jul 26, 3:10 PM)
Low73 °F (Jul 27, 4:40 PM)42% (Jul 14, 4:40 PM)29.39 "Hg (Jul 16, 3:40 PM)
Average86 °F73%29.53 "Hg
* Reported Jul 14 12:40 PM — Jul 29 1:40 AM, Ahmedabad, Weather by CustomWeather, © 2015

Note: Actual official high and low records may vary slightly from our data, if they occured in-between our weather recording intervals... More about our weather records

Advertising

Ahmedabad weather history for previous 24 hours

 ConditionsComfort  
Time TempWeatherWind HumidityBarometerVisibility
1:40 AM
Wed, Jul 29
77 °FLight rain. Mostly cloudy.14 mph89%29.53 "Hg2 mi
10:10 PM
Tue, Jul 28
77 °FRain. Mostly cloudy.14 mph89%29.56 "Hg1 mi
8:40 PM77 °FHeavy rain. Mostly cloudy.20 mph89%29.53 "Hg1 mi
8:10 PM77 °FRain. Mostly cloudy.17 mph89%29.50 "Hg2 mi
7:40 PM77 °FRain. More clouds than sun.17 mph94%29.50 "Hg2 mi
6:40 PM77 °FLight rain. More clouds than sun.17 mph94%29.50 "Hg2 mi
6:10 PM77 °FLight rain. More clouds than sun.17 mph94%29.50 "Hg2 mi
5:10 PM81 °FMore clouds than sun.17 mph84%29.50 "Hg3 mi
3:40 PM79 °FLight rain. More clouds than sun.12 mph84%29.47 "Hg2 mi
2:10 PM75 °FRain showers. More clouds than sun.17 mph100%29.50 "Hg1 mi
1:40 PM75 °FRain showers. More clouds than sun.17 mph100%29.47 "Hg1 mi
1:10 PM75 °FLight rain. More clouds than sun.7 mph100%29.47 "Hg1 mi
12:10 PM77 °FHeavy rain. More clouds than sun.14 mph94%29.47 "Hg1 mi
10:40 AM73 °FRain. More clouds than sun.9 mph100%29.50 "Hg1 mi
8:10 AM77 °FLight rain. More clouds than sun.9 mph94%29.47 "Hg1 mi
7:40 AM75 °FLight rain. More clouds than sun.16 mph100%29.47 "Hg1 mi
6:40 AM77 °FRain. More clouds than sun.14 mph94%29.47 "Hg1 mi
6:10 AM77 °FRain. Mostly cloudy.14 mph94%29.45 "Hg1 mi
5:40 AM77 °FRain. Mostly cloudy.15 mph94%29.45 "Hg1 mi
5:10 AM75 °FRain. Mostly cloudy.12 mph94%29.45 "Hg1 mi
4:40 AM73 °FLight rain. Mostly cloudy.14 mph94%29.47 "Hg2 mi
4:10 AM73 °FLight rain. Mostly cloudy.16 mph94%29.47 "Hg2 mi
Weather by CustomWeather, © 2015

See weather overviewHow to use our weather pages